Hourly Data Report for May 31, 2021

DRYDEN REGIONAL
ONTARIO
Current Station Operator: NAVCAN

49°49'39.000" N
92°44'39.000" W
412.70 m
6032125
71527
YHD

Download Data

Hourly Data (May 2021)
Hourly Data Report for May 31, 2021
TIME
LST
Temp Definition
°C
Dew Point Definition
°C
Rel Hum Definition
%
Precip. Amount Definition
mm

Wind Dir Definition
10's deg

Wind Spd Definition
km/h
Visibility Definition
km
Stn Press Definition
kPa
Hmdx Definition


Wind Chill Definition


Weather Definition


00:00 9.2 8.8 97 0.0 17 9 16.1 96.92     LegendNANA
01:00 8.9 8.5 97 0.0 19 13 16.1 96.92     LegendNANA
02:00 9.0 8.4 96 0.0 21 9 16.1 96.93     LegendNANA
03:00 8.6 7.9 95 0.0 27 9 16.1 96.92     LegendNANA
04:00 8.2 7.8 97 0.0 30 11 16.1 96.95     LegendNANA
05:00 7.8 7.1 95 0.0 28 5 16.1 96.99     LegendNANA
06:00 9.5 8.1 91 0.0 33 5 16.1 97.02     LegendNANA
07:00 10.9 8.8 87 0.0 35 8 16.1 97.06     LegendNANA
08:00 13.0 8.9 76 0.0 LegendMM 4 16.1 97.10     LegendNANA
09:00 14.9 9.4 70 0.0 1 8 16.1 97.12     LegendNANA
10:00 16.8 8.0 56 0.0 LegendMM 9 16.1 97.10     LegendNANA
11:00 18.5 6.3 45 0.0 LegendMM 9 14.5 97.09     LegendNANA
12:00 17.9 5.8 45 0.0 LegendMM 13 16.1 97.07     LegendNANA
13:00 20.4 5.4 37 0.0 LegendMM 8 16.1 97.04     LegendNANA
14:00 20.4 5.3 37 0.0 30 8 16.1 97.03     LegendNANA
15:00 21.2 4.0 32 0.0 32 13 16.1 97.02     LegendNANA
16:00 21.2 4.5 33 0.0 28 9 16.1 97.02     LegendNANA
17:00 21.6 4.6 33 0.0 29 17 16.1 96.99     LegendNANA
18:00 20.5 4.7 35 0.0 28 13 16.1 96.98     LegendNANA
19:00 20.2 4.9 36 0.0 28 17 16.1 96.99     LegendNANA
20:00 17.8 5.6 44 0.0 27 9 16.1 97.01     LegendNANA
21:00 15.9 5.9 51 0.0 26 9 16.1 97.05     LegendNANA
22:00 14.9 5.8 54 0.0 25 9 16.1 97.06     LegendNANA
23:00 14.0 5.7 57 0.0 25 11 16.1 97.05     LegendNANA

Notes on Data Quality.

Legend

  • E = Estimated
  • M = Missing
  • NA = Not Available*
  • [empty] = Indicates an unobserved value
Date modified: